Total_Precipitation_Accumulation
1.70 2.18 2.71 3.21 3.87 4.80 5.79 6.26 6.15 5.58 5.06 4.62 4.23 3.99 3.69 3.42 3.28 2.95 2.59 2.56 2.53 2.55 2.84 2.55 2.80 2.78 2.87 2.88 2.79 2.91 2.88 2.64 2.77 3.23 3.18 2.84 2.61 2.61 2.49 2.37 2.46 2.25 2.23
1.76 2.28 2.88 3.27 3.60 4.14 4.92 5.32 5.08 4.50 3.86 3.58 3.50 3.45 3.41 3.04 2.81 2.70 2.65 2.37 2.39 2.47 2.54 2.68 2.49 2.50 2.66 2.58 2.55 2.84 2.82 2.49 2.58 3.05 3.29 3.15 3.19 2.92 2.24 2.20 2.34 2.30 2.34
1.56 2.29 2.84 3.13 3.40 3.61 3.61 3.78 3.74 3.33 3.02 2.91 2.90 2.95 3.13 2.90 2.60 2.51 2.45 2.22 2.13 2.11 2.25 2.33 2.45 2.54 2.43 2.50 2.54 2.59 2.71 2.66 2.48 2.54 3.10 3.09 3.00 2.87 2.55 2.19 2.11 2.29 2.51
1.41 2.16 2.46 2.58 2.64 2.72 2.52 2.55 2.69 2.61 2.60 2.52 2.52 2.44 2.33 2.33 2.23 2.21 2.17 2.13 1.99 1.90 1.82 1.96 2.19 2.37 2.33 2.58 2.31 2.37 2.60 2.71 2.45 2.44 2.52 2.56 2.66 2.81 2.63 2.26 2.01 2.05 2.16
1.11 1.45 1.56 1.69 1.76 1.81 1.84 2.03 2.36 2.48 2.41 2.35 2.47 2.49 2.21 2.08 2.00 2.03 2.16 2.11 1.97 1.81 1.67 1.77 2.01 2.18 2.26 2.38 2.40 2.66 2.58 2.48 2.42 2.37 2.44 2.53 2.56 2.42 2.48 2.40 2.13 2.00 1.84
0.80 1.00 1.08 1.16 1.21 1.25 1.38 1.62 2.09 2.32 2.22 2.18 2.21 2.19 2.15 2.12 2.03 1.97 2.04 2.00 1.92 1.90 1.89 1.84 1.97 2.00 2.06 2.15 2.26 2.49 2.50 2.44 2.45 2.30 2.21 2.42 2.53 2.50 2.56 2.38 2.12 1.96 1.72
0.72 0.84 1.00 1.07 0.99 0.96 1.09 1.31 1.66 1.81 1.79 1.87 1.99 2.06 2.14 2.11 1.95 1.88 1.83 1.80 1.66 1.74 1.93 1.96 1.99 2.04 2.09 2.06 2.17 2.24 2.24 2.29 2.43 2.35 2.20 2.17 2.16 2.30 2.45 2.44 2.11 1.95 1.76
0.63 0.65 0.75 0.75 0.75 0.83 0.91 1.08 1.26 1.35 1.45 1.58 1.78 1.94 1.96 1.93 1.87 1.99 1.86 1.71 1.53 1.49 1.68 1.89 1.95 1.92 1.88 1.91 2.30 2.10 2.04 2.20 2.31 2.24 2.52 2.37 2.13 2.29 2.42 2.49 2.53 2.34 2.20
0.47 0.47 0.53 0.57 0.62 0.80 0.91 0.98 1.08 1.19 1.31 1.41 1.67 1.82 1.82 1.76 1.79 1.88 1.80 1.62 1.63 1.54 1.62 1.65 1.88 1.97 1.90 1.93 2.16 2.13 2.08 2.20 2.20 2.33 2.58 2.55 2.41 2.41 2.41 2.57 2.81 2.98 2.78
0.41 0.45 0.50 0.57 0.58 0.63 0.81 0.92 0.99 1.15 1.31 1.39 1.45 1.48 1.61 1.59 1.57 1.52 1.51 1.58 1.62 1.60 1.66 1.71 1.70 1.79 1.92 2.01 2.13 2.02 1.96 2.09 2.19 2.36 2.52 2.54 2.46 2.46 2.37 2.48 2.72 2.96 3.00
0.51 0.48 0.56 0.59 0.59 0.60 0.75 0.87 0.94 1.05 1.15 1.17 1.20 1.30 1.38 1.37 1.34 1.34 1.31 1.43 1.48 1.53 1.55 1.59 1.65 1.65 1.76 2.01 2.29 2.18 2.14 2.17 2.22 2.26 2.43 2.53 2.71 2.72 2.58 2.56 2.57 2.72 2.91
0.65 0.62 0.68 0.64 0.68 0.71 0.75 0.84 0.83 0.87 0.93 1.00 1.04 1.10 1.23 1.23 1.23 1.26 1.40 1.49 1.48 1.43 1.35 1.42 1.48 1.44 1.56 1.82 2.12 2.28 2.35 2.43 2.40 2.45 2.64 2.69 2.72 2.67 2.56 2.59 2.58 2.59 2.82
0.68 0.84 0.85 0.71 0.72 0.74 0.76 0.78 0.76 0.80 0.85 0.90 0.92 0.97 1.12 1.28 1.36 1.40 1.46 1.55 1.57 1.52 1.52 1.54 1.50 1.63 1.72 1.75 1.92 2.11 2.22 2.30 2.32 2.46 2.53 2.51 2.63 2.56 2.53 2.41 2.40 2.44 2.62
0.70 0.86 0.96 0.76 0.67 0.67 0.69 0.71 0.70 0.67 0.67 0.79 0.93 1.01 1.21 1.43 1.53 1.54 1.56 1.57 1.59 1.58 1.63 1.63 1.65 1.76 1.79 1.75 1.84 2.01 2.14 2.21 2.23 2.32 2.43 2.49 2.50 2.54 2.66 2.53 2.53 2.69 2.81
0.73 0.73 0.77 0.70 0.67 0.67 0.68 0.68 0.70 0.71 0.72 0.91 1.06 1.21 1.43 1.51 1.56 1.63 1.65 1.71 1.73 1.64 1.73 1.79 1.75 1.75 1.66 1.58 1.83 1.99 2.02 2.19 2.24 2.22 2.19 2.29 2.51 2.57 2.60 2.40 2.53 2.74 2.75
0.78 0.87 0.87 0.83 0.87 0.82 0.79 0.80 0.82 0.89 1.03 1.19 1.33 1.42 1.52 1.59 1.55 1.55 1.57 1.72 1.78 1.84 1.95 1.98 1.96 1.87 1.62 1.82 1.92 1.96 2.04 2.15 2.18 2.19 2.09 2.01 2.05 2.11 2.23 2.24 2.25 2.39 2.52
0.93 1.04 1.10 1.06 1.07 1.01 1.00 1.10 1.09 1.17 1.34 1.50 1.67 1.69 1.67 1.71 1.71 1.74 1.76 1.78 1.90 2.02 2.04 2.00 2.01 1.97 1.99 2.01 1.80 1.74 1.69 1.75 1.81 1.83 1.81 1.58 1.49 1.79 1.88 2.05 2.04 1.94 1.97
0.96 1.08 1.16 1.14 1.08 1.09 1.16 1.39 1.51 1.51 1.64 1.75 1.86 1.95 1.98 2.06 2.13 2.21 2.19 2.21 2.25 2.30 2.23 2.14 2.15 2.19 2.18 2.20 1.88 1.76 1.64 1.62 1.62 1.61 1.59 1.59 1.59 1.65 1.81 1.89 1.85 1.77 1.73
1.08 1.23 1.22 1.19 1.19 1.36 1.42 1.50 1.61 1.64 1.82 2.01 2.15 2.22 2.28 2.31 2.35 2.38 2.46 2.57 2.70 2.73 2.62 2.56 2.59 2.59 2.66 2.67 2.30 2.14 1.89 1.81 1.71 1.73 1.78 1.80 1.65 1.71 1.73 1.76 1.72 1.68 1.70
1.23 1.36 1.39 1.35 1.42 1.68 1.75 1.83 1.91 1.98 2.06 2.16 2.33 2.52 2.63 2.65 2.63 2.68 2.82 2.98 3.14 3.16 3.14 3.13 3.13 3.04 3.01 3.00 2.62 2.45 2.19 2.13 2.06 2.06 1.94 1.84 1.64 1.58 1.53 1.54 1.62 1.55 1.53
1.20 1.35 1.40 1.41 1.48 1.69 1.89 2.16 2.31 2.35 2.36 2.41 2.53 2.66 2.76 2.89 2.95 3.04 3.12 3.28 3.39 3.34 3.28 3.23 3.19 3.11 3.05 2.95 2.63 2.46 2.25 2.26 2.27 2.14 2.02 1.88 1.74 1.53 1.49 1.45 1.45 1.48 1.57
1.23 1.30 1.43 1.50 1.61 1.76 2.00 2.23 2.40 2.56 2.66 2.65 2.77 2.82 2.83 2.74 2.74 2.98 3.17 3.36 3.56 3.51 3.43 3.47 3.35 3.22 3.10 2.83 2.59 2.40 2.25 2.31 2.34 2.25 2.13 2.02 1.88 1.63 1.56 1.42 1.40 1.45 1.43
1.20 1.22 1.30 1.43 1.54 1.64 1.85 2.24 2.38 2.44 2.51 2.62 2.67 2.78 2.82 2.86 2.92 3.11 3.27 3.46 3.56 3.50 3.38 3.37 3.31 3.12 2.95 2.82 2.56 2.32 2.22 2.24 2.18 2.24 2.31 2.13 1.98 1.77 1.61 1.57 1.55 1.46 1.37
1.15 1.20 1.28 1.39 1.47 1.44 1.60 1.82 2.05 2.18 2.23 2.26 2.30 2.31 2.43 2.60 2.83 3.13 3.23 3.28 3.32 3.33 3.30 3.19 3.05 3.02 3.00 2.94 2.69 2.38 2.13 2.08 2.12 2.16 2.23 2.10 1.94 1.72 1.57 1.58 1.50 1.35 1.33
1.13 1.19 1.35 1.37 1.40 1.46 1.50 1.55 1.61 1.82 1.98 1.98 2.00 2.11 2.21 2.39 2.60 2.82 2.99 2.96 2.98 3.16 3.04 2.83 2.66 2.54 2.46 2.55 2.48 2.23 2.09 2.05 2.12 2.17 2.21 2.14 2.02 1.87 1.71 1.62 1.62 1.60 1.54
1.15 1.22 1.31 1.30 1.30 1.39 1.46 1.49 1.59 1.76 1.83 1.77 1.78 1.82 1.87 2.02 2.20 2.36 2.49 2.52 2.30 2.36 2.26 2.09 1.95 1.83 1.80 1.84 1.74 1.61 1.56 1.65 1.82 1.90 2.06 2.09 1.99 1.89 1.84 1.81 1.77 1.73 1.64